Hourly Data Report for September 23, 2017

All times are specified in Local Standard Time (LST). Add 1 hour to adjust for Daylight Saving Time where and when it is observed.

DOAKTOWN AUTO RCS
NEW BRUNSWICK

46°35'06.090" N
66°00'35.071" W
43.00 m
8101201
71038
ADN

Download Data

Hourly Data (September 2017)
Hourly Data Report for September 23, 2017
Temp Definition
°C
Dew Point Temp Definition
°C
Rel Hum Definition
%
Wind Dir Definition
10's deg

Wind Spd Definition
km/h
Visibility Definition
km
Stn Press Definition
kPa
Hmdx Definition


Wind Chill Definition


Weather Definition


TIME
00:00 8.0 6.8 93 0 1   101.26     LegendNANA
01:00 7.3 6.4 94 24 3   101.25     LegendNANA
02:00 6.8 6.0 95 23 3   101.19     LegendNANA
03:00 6.5 5.8 95 23 5   101.10     LegendNANA
04:00 5.6 4.9 95 22 4   101.06     LegendNANA
05:00 5.5 4.9 96 25 6   101.02     LegendNANA
06:00 5.3 4.7 96 22 5   100.97     LegendNANA
07:00 6.5 5.9 96 24 8   100.96     LegendNANA
08:00 9.9 8.6 91 23 6   100.92     LegendNANA
09:00 15.4 8.1 62 26 12   100.89     LegendNANA
10:00 20.2 9.4 50 26 15   100.87     LegendNANA
11:00 23.4 9.1 40 25 16   100.83     LegendNANA
12:00 26.2 8.8 33 25 16   100.76 27   LegendNANA
13:00 28.5 11.9 36 25 19   100.72 31   LegendNANA
14:00 28.8 14.3 41 26 16   100.66 32   LegendNANA
15:00 29.1 14.7 41 28 15   100.64 33   LegendNANA
16:00 28.6 14.1 41 31 14   100.66 32   LegendNANA
17:00 27.6 14.3 44 28 11   100.73 31   LegendNANA
18:00 23.1 14.5 58 28 4   100.77 27   LegendNANA
19:00 20.5 15.5 73 27 1   100.86 25   LegendNANA
20:00 17.9 15.1 84   0   100.96     LegendNANA
21:00 16.8 15.1 90 29 3   101.05     LegendNANA
22:00 17.9 10.2 61 7 8   101.14     LegendNANA
23:00 14.5 9.1 70   0   101.15     LegendNANA

Notes on Data Quality.

Legend

  • E = Estimated
  • M = Missing
  • NA = Not Available
  • ‡ = Partner data that is not subject to review by the National Climate Archives
Date modified: